Location: Radom
(51.4061°N, 21.1577°E)
Time: 12:21:18
(UTC+02:00)

ISS - Visible Passes

Search period start: 13 May 2021 00:00
Search period end: 23 May 2021 00:00
Orbit: 417 x 422 km, 51.6° (Epoch: 13 May)

Date Brightness Start Highest point End Pass type
(mag) Time Alt. Az. Time Alt. Az. Time Alt. Az.
13 May -2.7 00:32:07 36° E 00:32:07 36° E 00:34:16 10° E visible
13 May -3.8 02:05:02 15° W 02:07:44 87° N 02:11:07 10° E visible
13 May -3.4 03:41:12 10° W 03:44:26 42° SSW 03:47:38 10° SE visible
13 May -1.8 23:45:45 19° E 23:45:45 19° E 23:46:49 10° E visible
14 May -3.8 01:18:38 28° W 01:20:17 84° N 01:23:40 10° E visible
14 May -3.7 02:53:44 10° W 02:57:03 56° SSW 03:00:22 10° ESE visible
14 May -1.9 21:18:24 10° SSE 21:19:54 12° SE 21:21:23 10° ESE visible
14 May -3.4 22:52:50 10° SW 22:57:50 23° E 22:59:21 10° E visible
15 May -3.8 00:29:26 10° W 00:32:49 85° N 00:36:12 10° E visible
15 May -3.9 02:06:17 10° W 02:09:39 71° SSW 02:13:01 10° ESE visible
15 May -2.5 03:43:24 10° W 03:46:06 22° SW 03:48:47 10° SSE visible
15 May -3.2 22:05:39 10° SW 22:08:44 35° SSE 22:11:51 10° E visible
15 May -3.9 23:41:59 10° W 23:45:22 88° S 23:48:45 10° E visible
16 May -3.9 01:18:50 10° W 01:22:13 84° SSW 01:25:37 10° ESE visible
16 May -3.0 02:55:47 10° W 02:58:48 31° SSW 03:01:49 10° SSE visible
16 May -2.7 21:18:36 10° SSW 21:21:26 25° SSE 21:24:16 10° E visible
16 May -3.9 22:54:34 10° WSW 22:57:55 77° SSE 23:01:18 10° E visible
17 May -3.8 00:31:23 10° W 00:34:46 87° N 00:38:10 10° E visible
17 May -3.4 02:08:15 10° W 02:11:28 42° SSW 02:14:41 10° SE visible
17 May -1.7 03:46:51 10° WSW 03:47:36 11° SW 03:48:20 10° SSW visible
17 May -3.8 22:07:11 10° WSW 22:10:31 62° SSE 22:13:51 10° E visible
17 May -3.8 23:43:56 10° W 23:47:19 84° N 23:50:03 15° E visible
18 May -2.8 01:20:46 10° W 01:22:56 34° W 01:22:56 34° W visible
18 May -3.5 21:19:52 10° SW 21:23:07 47° SSE 21:26:23 10° E visible
18 May -3.8 22:56:28 10° W 22:59:51 85° N 23:03:15 10° E visible
19 May -3.9 00:33:18 10° W 00:36:31 69° SW 00:36:31 69° SW visible
19 May -3.8 22:09:01 10° W 22:12:23 88° S 22:15:47 10° E visible
19 May -3.9 23:45:51 10° W 23:49:15 84° S 23:50:21 40° ESE visible
20 May -1.3 01:22:48 10° W 01:23:16 13° W 01:23:16 13° W visible
20 May -3.8 21:21:35 10° WSW 21:24:57 77° SSE 21:28:20 10° E visible
20 May -3.8 22:58:24 10° W 23:01:47 88° N 23:04:16 17° E visible
21 May -2.5 00:35:16 10° W 00:37:12 28° WSW 00:37:12 28° WSW visible
21 May -3.7 22:10:56 10° W 22:14:19 84° N 22:17:43 10° E visible
21 May -3.7 23:47:47 10° W 23:51:06 55° SSW 23:51:10 55° SSW visible
22 May -3.7 21:23:28 10° W 21:26:51 85° N 21:30:14 10° E visible
22 May -3.9 23:00:19 10° W 23:03:41 70° SSW 23:05:10 30° ESE visible
